| time (UTC) | temp F | wind direction | speed MPH | gust MPH | rain 1hr in | rain 24hr in | rain mn in | humidity % | barometer mb |
| 20260902012516 | 66 | 203 | 5.0 | 6.0 | 0.00 | 0.32 | 0.32 | 81 | 1017.2 |
| 20260902012016 | 66 | 203 | 5.0 | 6.0 | 0.00 | 0.32 | 0.32 | 81 | 1017.3 |
| 20260902011516 | 66 | 203 | 6.0 | 7.0 | 0.00 | 0.32 | 0.32 | 81 | 1017.2 |
| 20260902011016 | 66 | 203 | 7.0 | 8.0 | 0.00 | 0.32 | 0.32 | 81 | 1017.1 |
| 20260902010516 | 66 | 203 | 7.0 | 8.0 | 0.00 | 0.32 | 0.32 | 80 | 1017.1 |
| 20260902010016 | 66 | 203 | 7.0 | 8.0 | 0.00 | 0.32 | 0.32 | 80 | 1017.0 |
| 20260902005516 | 67 | 203 | 6.0 | 8.0 | 0.00 | 0.32 | 0.32 | 80 | 1017.0 |
| 20260902005016 | 67 | 180 | 7.0 | 9.0 | 0.00 | 0.32 | 0.32 | 79 | 1016.9 |
| 20260902004516 | 66 | 180 | 9.0 | 11.0 | 0.00 | 0.32 | 0.32 | 79 | 1016.8 |
| 20260902004015 | 66 | 180 | 10.0 | 11.0 | 0.00 | 0.32 | 0.32 | 79 | 1016.6 |
| 20260902003516 | 67 | 180 | 11.0 | 13.0 | 0.00 | 0.32 | 0.32 | 79 | 1016.5 |
| 20260902003016 | 67 | 180 | 11.0 | 13.0 | 0.00 | 0.32 | 0.32 | 80 | 1016.6 |
| 20260902002516 | 67 | 180 | 11.0 | 13.0 | 0.00 | 0.32 | 0.32 | 80 | 1016.6 |
| 20260902002016 | 67 | 180 | 10.0 | 12.0 | 0.00 | 0.32 | 0.32 | 80 | 1016.7 |
| 20260902001538 | 67 | 180 | 10.0 | 12.0 | 0.00 | 0.32 | 0.32 | 80 | 1016.7 |
| 20260902001016 | 67 | 180 | 9.0 | 12.0 | 0.00 | 0.32 | 0.32 | 80 | 1016.8 |
| 20260902000516 | 67 | 180 | 9.0 | 11.0 | 0.00 | 0.32 | 0.32 | 80 | 1016.8 |
| 20260902000016 | 67 | 180 | 9.0 | 11.0 | 0.00 | 0.32 | 0.32 | 80 | 1016.7 |
| 20260901235515 | 67 | 180 | 10.0 | 11.0 | 0.00 | 0.32 | 0.32 | 79 | 1016.7 |
| 20260901235016 | 67 | 180 | 10.0 | 12.0 | 0.00 | 0.32 | 0.32 | 79 | 1016.7 |
| 20260901234516 | 67 | 180 | 10.0 | 12.0 | 0.00 | 0.32 | 0.32 | 79 | 1016.7 |
| 20260901234056 | 67 | 180 | 10.0 | 12.0 | 0.00 | 0.32 | 0.32 | 79 | 1016.6 |
| 20260901233516 | 67 | 180 | 9.0 | 11.0 | 0.00 | 0.32 | 0.32 | 78 | 1016.5 |
| 20260901233015 | 67 | 180 | 8.0 | 11.0 | 0.00 | 0.32 | 0.32 | 78 | 1016.6 |
| 20260901232516 | 67 | 180 | 9.0 | 11.0 | 0.00 | 0.32 | 0.32 | 77 | 1016.5 |
| 20260901232037 | 67 | 180 | 9.0 | 10.0 | 0.00 | 0.32 | 0.32 | 78 | 1016.6 |
| 20260901231516 | 67 | 180 | 8.0 | 10.0 | 0.00 | 0.32 | 0.32 | 78 | 1016.6 |
| 20260901231016 | 67 | 180 | 8.0 | 9.0 | 0.00 | 0.32 | 0.32 | 78 | 1016.5 |
| 20260901230516 | 67 | 180 | 7.0 | 8.0 | 0.00 | 0.32 | 0.32 | 78 | 1016.5 |
| 20260901230015 | 67 | 180 | 7.0 | 9.0 | 0.00 | 0.32 | 0.32 | 78 | 1016.4 |
| 20260901225536 | 67 | 180 | 8.0 | 10.0 | 0.00 | 0.32 | 0.32 | 78 | 1016.4 |
| 20260901225035 | 67 | 203 | 9.0 | 10.0 | 0.00 | 0.32 | 0.32 | 79 | 1016.4 |
| 20260901224515 | 67 | 203 | 9.0 | 10.0 | 0.00 | 0.32 | 0.32 | 79 | 1016.4 |
| 20260901224036 | 67 | 203 | 8.0 | 9.0 | 0.00 | 0.32 | 0.32 | 79 | 1016.4 |
| 20260901223515 | 67 | 203 | 9.0 | 10.0 | 0.00 | 0.32 | 0.32 | 78 | 1016.5 |
| 20260901223015 | 67 | 203 | 8.0 | 9.0 | 0.00 | 0.32 | 0.32 | 79 | 1016.5 |
| 20260901222516 | 67 | 180 | 8.0 | 10.0 | 0.00 | 0.32 | 0.32 | 78 | 1016.4 |
| 20260901222015 | 67 | 180 | 8.0 | 10.0 | 0.00 | 0.32 | 0.32 | 79 | 1016.3 |
| 20260901221516 | 67 | 180 | 9.0 | 11.0 | 0.00 | 0.32 | 0.32 | 79 | 1016.2 |
| 20260901221015 | 67 | 180 | 10.0 | 12.0 | 0.00 | 0.32 | 0.32 | 79 | 1016.3 |
| 20260901220515 | 67 | 180 | 10.0 | 12.0 | 0.00 | 0.32 | 0.32 | 79 | 1016.2 |
| 20260901220015 | 67 | 180 | 10.0 | 11.0 | 0.00 | 0.32 | 0.32 | 79 | 1016.3 |
| 20260901215515 | 67 | 180 | 9.0 | 11.0 | 0.00 | 0.32 | 0.32 | 79 | 1016.5 |
| 20260901215016 | 67 | 180 | 9.0 | 10.0 | 0.00 | 0.32 | 0.32 | 78 | 1016.5 |
| 20260901214515 | 67 | 180 | 8.0 | 10.0 | 0.00 | 0.32 | 0.32 | 77 | 1016.3 |
| 20260901214016 | 67 | 180 | 8.0 | 9.0 | 0.00 | 0.32 | 0.32 | 76 | 1016.4 |
| 20260901213515 | 67 | 180 | 8.0 | 9.0 | 0.00 | 0.32 | 0.32 | 76 | 1016.4 |
| 20260901213037 | 67 | 203 | 7.0 | 9.0 | 0.00 | 0.32 | 0.32 | 75 | 1016.3 |
| 20260901212535 | 67 | 203 | 7.0 | 9.0 | 0.00 | 0.32 | 0.32 | 75 | 1016.3 |
| 20260901212015 | 67 | 180 | 9.0 | 11.0 | 0.00 | 0.32 | 0.32 | 76 | 1016.3 |
| 20260901211535 | 67 | 180 | 10.0 | 11.0 | 0.00 | 0.32 | 0.32 | 77 | 1016.3 |
| 20260901211016 | 67 | 180 | 10.0 | 12.0 | 0.00 | 0.32 | 0.32 | 77 | 1016.2 |
| 20260901210515 | 67 | 203 | 10.0 | 12.0 | 0.00 | 0.32 | 0.32 | 77 | 1016.3 |
| 20260901210016 | 67 | 180 | 11.0 | 13.0 | 0.00 | 0.32 | 0.32 | 77 | 1016.2 |
| 20260901205518 | 67 | 180 | 13.0 | 15.0 | 0.00 | 0.32 | 0.32 | 76 | 1016.1 |
| 20260901205018 | 67 | 180 | 11.0 | 14.0 | 0.00 | 0.32 | 0.32 | 76 | 1015.9 |
| 20260901204517 | 67 | 180 | 10.0 | 12.0 | 0.00 | 0.32 | 0.32 | 79 | 1016.0 |
| 20260901204017 | 67 | 180 | 10.0 | 12.0 | 0.00 | 0.32 | 0.32 | 79 | 1015.9 |
| 20260901203518 | 67 | 180 | 10.0 | 12.0 | 0.00 | 0.32 | 0.32 | 81 | 1015.9 |
| 20260901203038 | 67 | 180 | 10.0 | 13.0 | 0.00 | 0.32 | 0.32 | 80 | 1015.9 |
| 20260901202517 | 67 | 180 | 10.0 | 13.0 | 0.00 | 0.32 | 0.32 | 79 | 1015.9 |
| 20260901202017 | 67 | 180 | 9.0 | 11.0 | 0.00 | 0.32 | 0.32 | 78 | 1015.9 |
| 20260901201518 | 67 | 180 | 9.0 | 11.0 | 0.00 | 0.32 | 0.32 | 76 | 1015.9 |
| 20260901201038 | 67 | 180 | 9.0 | 11.0 | 0.00 | 0.32 | 0.32 | 78 | 1015.9 |
| 20260901200517 | 67 | 180 | 9.0 | 11.0 | 0.00 | 0.32 | 0.32 | 81 | 1015.9 |
| 20260901200017 | 67 | 180 | 11.0 | 14.0 | 0.00 | 0.32 | 0.32 | 81 | 1016.0 |
| 20260901195517 | 67 | 180 | 11.0 | 14.0 | 0.00 | 0.32 | 0.32 | 82 | 1015.9 |
| 20260901195017 | 67 | 180 | 10.0 | 12.0 | 0.00 | 0.32 | 0.32 | 81 | 1015.9 |
| 20260901194518 | 67 | 180 | 9.0 | 12.0 | 0.00 | 0.32 | 0.32 | 81 | 1016.0 |
| 20260901194037 | 67 | 180 | 9.0 | 11.0 | 0.00 | 0.32 | 0.32 | 81 | 1016.1 |
| 20260901193517 | 67 | 180 | 10.0 | 11.0 | 0.00 | 0.32 | 0.32 | 83 | 1016.0 |
| 20260901193018 | 67 | 180 | 10.0 | 12.0 | 0.00 | 0.32 | 0.32 | 84 | 1016.0 |
| 20260901192518 | 67 | 180 | 9.0 | 11.0 | 0.00 | 0.32 | 0.32 | 86 | 1016.0 |
| 20260901192017 | 67 | 180 | 10.0 | 12.0 | 0.00 | 0.32 | 0.32 | 87 | 1016.0 |
| 20260901191516 | 68 | 180 | 10.0 | 12.0 | 0.00 | 0.32 | 0.32 | 87 | 1015.8 |
| 20260901191017 | 68 | 158 | 5.0 | 10.0 | 0.00 | 0.32 | 0.32 | 87 | 1015.8 |
| 20260901190517 | 68 | 158 | 4.0 | 6.0 | 0.00 | 0.32 | 0.32 | 88 | 1015.9 |
| 20260901190038 | 68 | 158 | 4.0 | 7.0 | 0.01 | 0.32 | 0.32 | 88 | 1015.9 |
| 20260901185518 | 68 | 135 | 4.0 | 7.0 | 0.01 | 0.32 | 0.32 | 88 | 1015.9 |
| 20260901185017 | 68 | 113 | 4.0 | 7.0 | 0.01 | 0.32 | 0.32 | 88 | 1015.9 |
| 20260901184517 | 68 | 113 | 4.0 | 6.0 | 0.01 | 0.32 | 0.32 | 88 | 1015.9 |
| 20260901184018 | 68 | 113 | 4.0 | 6.0 | 0.01 | 0.32 | 0.32 | 88 | 1015.8 |
| 20260901183517 | 68 | 113 | 5.0 | 7.0 | 0.01 | 0.32 | 0.32 | 88 | 1015.8 |
| 20260901183017 | 68 | 113 | 5.0 | 7.0 | 0.01 | 0.32 | 0.32 | 89 | 1015.8 |
| 20260901182517 | 67 | 113 | 5.0 | 8.0 | 0.01 | 0.32 | 0.32 | 88 | 1015.7 |
| 20260901182018 | 67 | 113 | 6.0 | 8.0 | 0.01 | 0.32 | 0.32 | 88 | 1015.5 |
| 20260901181517 | 67 | 113 | 6.0 | 8.0 | 0.01 | 0.32 | 0.32 | 88 | 1015.6 |
| 20260901181017 | 67 | 113 | 6.0 | 8.0 | 0.01 | 0.32 | 0.32 | 89 | 1015.7 |
| 20260901180517 | 67 | 90 | 6.0 | 8.0 | 0.01 | 0.32 | 0.32 | 88 | 1015.9 |
| 20260901180017 | 67 | 113 | 6.0 | 8.0 | 0.00 | 0.31 | 0.31 | 89 | 1015.8 |
| 20260901175538 | 67 | 113 | 6.0 | 7.0 | 0.00 | 0.31 | 0.31 | 88 | 1015.7 |
| 20260901175017 | 66 | 90 | 6.0 | 8.0 | 0.00 | 0.31 | 0.31 | 88 | 1015.8 |
| 20260901174517 | 66 | 90 | 6.0 | 8.0 | 0.00 | 0.31 | 0.31 | 88 | 1015.8 |
| 20260901174018 | 66 | 90 | 6.0 | 8.0 | 0.00 | 0.31 | 0.31 | 89 | 1015.9 |
| 20260901173518 | 66 | 90 | 5.0 | 7.0 | 0.00 | 0.31 | 0.31 | 88 | 1015.9 |
| 20260901173017 | 66 | 90 | 4.0 | 6.0 | 0.00 | 0.31 | 0.31 | 89 | 1015.9 |
| 20260901172517 | 66 | 90 | 4.0 | 7.0 | 0.00 | 0.31 | 0.31 | 89 | 1015.9 |
| 20260901172017 | 66 | 90 | 5.0 | 7.0 | 0.00 | 0.31 | 0.31 | 89 | 1015.9 |
| 20260901171517 | 66 | 68 | 6.0 | 8.0 | 0.00 | 0.31 | 0.31 | 89 | 1015.9 |
| 20260901171018 | 66 | 68 | 6.0 | 8.0 | 0.00 | 0.31 | 0.31 | 89 | 1015.9 |
| 20260901170517 | 66 | 90 | 5.0 | 7.0 | 0.00 | 0.31 | 0.31 | 89 | 1016.0 |
| 20260901170017 | 66 | 68 | 5.0 | 7.0 | 0.00 | 0.31 | 0.31 | 89 | 1016.0 |
| 20260901165537 | 66 | 68 | 4.0 | 6.0 | 0.00 | 0.31 | 0.31 | 89 | 1016.0 |
| 20260901165017 | 66 | 68 | 4.0 | 5.0 | 0.00 | 0.31 | 0.31 | 89 | 1016.0 |
| 20260901164517 | 66 | 68 | 4.0 | 5.0 | 0.00 | 0.31 | 0.31 | 89 | 1016.0 |
| 20260901164017 | 66 | 68 | 4.0 | 5.0 | 0.00 | 0.31 | 0.31 | 89 | 1015.9 |
| 20260901163517 | 66 | 68 | 4.0 | 6.0 | 0.00 | 0.31 | 0.31 | 89 | 1015.9 |
| 20260901163017 | 66 | 68 | 4.0 | 5.0 | 0.01 | 0.31 | 0.31 | 89 | 1015.8 |
| 20260901162517 | 66 | 68 | 4.0 | 6.0 | 0.01 | 0.31 | 0.31 | 89 | 1015.8 |
| 20260901162017 | 66 | 68 | 3.0 | 5.0 | 0.01 | 0.31 | 0.31 | 89 | 1015.9 |
| 20260901161518 | 66 | 68 | 2.0 | 4.0 | 0.01 | 0.31 | 0.31 | 89 | 1015.9 |
| 20260901161037 | 66 | 68 | 3.0 | 4.0 | 0.01 | 0.31 | 0.31 | 89 | 1015.8 |
| 20260901160517 | 66 | 90 | 3.0 | 5.0 | 0.01 | 0.31 | 0.31 | 89 | 1015.8 |
| 20260901160017 | 66 | 90 | 3.0 | 6.0 | 0.01 | 0.31 | 0.31 | 89 | 1015.7 |
| 20260901155517 | 66 | 90 | 4.0 | 6.0 | 0.01 | 0.31 | 0.31 | 89 | 1015.7 |
| 20260901155038 | 66 | 113 | 3.0 | 6.0 | 0.01 | 0.31 | 0.31 | 89 | 1015.7 |
| 20260901154517 | 66 | 113 | 3.0 | 6.0 | 0.01 | 0.31 | 0.31 | 89 | 1015.6 |
| 20260901154018 | 65 | 113 | 3.0 | 4.0 | 0.01 | 0.31 | 0.31 | 89 | 1015.7 |
| 20260901153517 | 65 | 90 | 4.0 | 7.0 | 0.01 | 0.31 | 0.31 | 89 | 1015.7 |
| 20260901153017 | 65 | 68 | 5.0 | 7.0 | 0.00 | 0.30 | 0.30 | 89 | 1015.8 |
| 20260901152517 | 65 | 68 | 5.0 | 8.0 | 0.00 | 0.30 | 0.30 | 89 | 1015.7 |
| 20260901152017 | 65 | 68 | 5.0 | 7.0 | 0.00 | 0.30 | 0.30 | 89 | 1015.7 |
| 20260901151517 | 65 | 68 | 5.0 | 7.0 | 0.01 | 0.30 | 0.30 | 89 | 1015.6 |
| 20260901151017 | 65 | 90 | 5.0 | 7.0 | 0.01 | 0.30 | 0.30 | 89 | 1015.5 |
| 20260901150537 | 65 | 90 | 5.0 | 7.0 | 0.01 | 0.30 | 0.30 | 89 | 1015.6 |
| 20260901150017 | 65 | 90 | 5.0 | 7.0 | 0.03 | 0.30 | 0.30 | 89 | 1015.5 |
| 20260901145537 | 65 | 90 | 3.0 | 6.0 | 0.03 | 0.30 | 0.30 | 89 | 1015.5 |
| 20260901145017 | 65 | 90 | 2.0 | 5.0 | 0.05 | 0.30 | 0.30 | 89 | 1015.5 |
| 20260901144537 | 65 | 90 | 2.0 | 3.0 | 0.06 | 0.30 | 0.30 | 89 | 1015.5 |
| 20260901144017 | 65 | 90 | 4.0 | 5.0 | 0.07 | 0.30 | 0.30 | 89 | 1015.5 |
| 20260901143517 | 65 | 68 | 3.0 | 6.0 | 0.09 | 0.30 | 0.30 | 89 | 1015.6 |
| 20260901143018 | 65 | 68 | 5.0 | 8.0 | 0.11 | 0.30 | 0.30 | 89 | 1015.6 |
| 20260901142517 | 65 | 45 | 4.0 | 8.0 | 0.13 | 0.30 | 0.30 | 89 | 1015.6 |
| 20260901142017 | 65 | 68 | 5.0 | 8.0 | 0.15 | 0.30 | 0.30 | 89 | 1015.7 |
| 20260901141518 | 65 | 45 | 6.0 | 10.0 | 0.17 | 0.29 | 0.29 | 89 | 1015.7 |
| 20260901141017 | 65 | 45 | 6.0 | 9.0 | 0.19 | 0.29 | 0.29 | 88 | 1015.8 |
| 20260901140517 | 65 | 45 | 6.0 | 9.0 | 0.21 | 0.29 | 0.29 | 88 | 1015.9 |
| 20260901140037 | 65 | 45 | 7.0 | 9.0 | 0.21 | 0.27 | 0.27 | 88 | 1015.8 |
| 20260901135517 | 64 | 45 | 6.0 | 9.0 | 0.24 | 0.27 | 0.27 | 88 | 1015.9 |
| 20260901135016 | 65 | 45 | 6.0 | 9.0 | 0.24 | 0.25 | 0.25 | 88 | 1016.0 |
| 20260901134517 | 65 | 45 | 6.0 | 10.0 | 0.24 | 0.24 | 0.24 | 87 | 1016.1 |
| 20260901134017 | 65 | 45 | 7.0 | 10.0 | 0.23 | 0.23 | 0.23 | 87 | 1016.1 |
| 20260901133517 | 65 | 45 | 7.0 | 10.0 | 0.21 | 0.21 | 0.21 | 87 | 1016.2 |
| 20260901133017 | 65 | 45 | 9.0 | 12.0 | 0.19 | 0.19 | 0.19 | 87 | 1016.2 |
| 20260901132517 | 65 | 0 | 9.0 | 12.0 | 0.17 | 0.17 | 0.17 | 87 | 1016.2 |
| 20260901132017 | 65 | 0 | 11.0 | 14.0 | 0.15 | 0.15 | 0.15 | 86 | 1016.2 |
| 20260901131517 | 65 | 338 | 11.0 | 14.0 | 0.12 | 0.12 | 0.12 | 86 | 1016.3 |
| 20260901131016 | 66 | 338 | 11.0 | 15.0 | 0.10 | 0.10 | 0.10 | 86 | 1016.1 |
| 20260901130516 | 66 | 338 | 13.0 | 15.0 | 0.08 | 0.08 | 0.08 | 85 | 1016.2 |
| 20260901130017 | 66 | 338 | 12.0 | 15.0 | 0.06 | 0.06 | 0.06 | 85 | 1016.2 |
| 20260901125516 | 67 | 23 | 11.0 | 14.0 | 0.03 | 0.03 | 0.03 | 85 | 1016.1 |
| 20260901125016 | 67 | 23 | 6.0 | 9.0 | 0.01 | 0.01 | 0.01 | 85 | 1016.1 |
| 20260901124517 | 66 | 23 | 6.0 | 8.0 | 0.00 | 0.00 | 0.00 | 84 | 1016.1 |
| 20260901124037 | 67 | 23 | 5.0 | 7.0 | 0.00 | 0.00 | 0.00 | 84 | 1016.1 |
| 20260901123517 | 67 | 23 | 5.0 | 7.0 | 0.00 | 0.00 | 0.00 | 84 | 1016.2 |
| 20260901123016 | 67 | 23 | 6.0 | 8.0 | 0.00 | 0.00 | 0.00 | 84 | 1016.1 |
| 20260901122517 | 67 | 23 | 7.0 | 9.0 | 0.00 | 0.00 | 0.00 | 84 | 1016.0 |
| 20260901122017 | 67 | 45 | 7.0 | 10.0 | 0.00 | 0.00 | 0.00 | 84 | 1015.9 |
| 20260901121537 | 67 | 23 | 5.0 | 8.0 | 0.00 | 0.00 | 0.00 | 84 | 1016.0 |
| 20260901121016 | 67 | 23 | 5.0 | 9.0 | 0.00 | 0.00 | 0.00 | 84 | 1016.0 |
| 20260901120517 | 67 | 23 | 4.0 | 7.0 | 0.00 | 0.00 | 0.00 | 84 | 1015.9 |
| 20260901120017 | 67 | 0 | 5.0 | 7.0 | 0.00 | 0.00 | 0.00 | 84 | 1015.9 |
| 20260901115516 | 67 | 338 | 4.0 | 7.0 | 0.00 | 0.00 | 0.00 | 85 | 1015.9 |
| 20260901115016 | 67 | 338 | 5.0 | 8.0 | 0.00 | 0.00 | 0.00 | 84 | 1015.9 |
| 20260901114517 | 67 | 0 | 5.0 | 8.0 | 0.00 | 0.00 | 0.00 | 84 | 1015.8 |
| 20260901114016 | 67 | 23 | 5.0 | 8.0 | 0.00 | 0.00 | 0.00 | 84 | 1015.8 |
| 20260901113537 | 67 | 338 | 4.0 | 8.0 | 0.00 | 0.00 | 0.00 | 84 | 1015.8 |
| 20260901113036 | 67 | 338 | 3.0 | 5.0 | 0.00 | 0.00 | 0.00 | 85 | 1015.8 |
| 20260901112516 | 67 | 338 | 3.0 | 5.0 | 0.00 | 0.00 | 0.00 | 85 | 1015.7 |
| 20260901112037 | 67 | 315 | 2.0 | 3.0 | 0.00 | 0.00 | 0.00 | 85 | 1015.7 |
| 20260901111516 | 67 | 270 | 1.0 | 3.0 | 0.00 | 0.00 | 0.00 | 85 | 1015.6 |
| 20260901111016 | 67 | 315 | 1.0 | 2.0 | 0.00 | 0.00 | 0.00 | 85 | 1015.5 |
| 20260901110536 | 67 | 338 | 2.0 | 3.0 | 0.00 | 0.00 | 0.00 | 85 | 1015.5 |
| 20260901110016 | 67 | 270 | 2.0 | 3.0 | 0.00 | 0.00 | 0.00 | 85 | 1015.4 |
| 20260901105517 | 67 | 270 | 3.0 | 6.0 | 0.00 | 0.00 | 0.00 | 85 | 1015.3 |
| 20260901105016 | 67 | 270 | 3.0 | 6.0 | 0.00 | 0.00 | 0.00 | 85 | 1015.2 |
| 20260901104557 | 67 | 248 | 4.0 | 8.0 | 0.00 | 0.00 | 0.00 | 85 | 1015.2 |
| 20260901104016 | 67 | 248 | 2.0 | 3.0 | 0.00 | 0.00 | 0.00 | 85 | 1015.2 |
| 20260901103516 | 67 | 45 | 1.0 | 2.0 | 0.00 | 0.00 | 0.00 | 85 | 1015.0 |
| 20260901103016 | 67 | 248 | 1.0 | 3.0 | 0.00 | 0.00 | 0.00 | 85 | 1015.0 |
| 20260901102537 | 67 | 248 | 2.0 | 4.0 | 0.00 | 0.00 | 0.00 | 85 | 1014.9 |
| 20260901102017 | 67 | 270 | 4.0 | 7.0 | 0.00 | 0.00 | 0.00 | 85 | 1014.8 |
| 20260901101516 | 67 | 270 | 6.0 | 9.0 | 0.00 | 0.00 | 0.00 | 85 | 1014.8 |
| 20260901101036 | 67 | 248 | 7.0 | 9.0 | 0.00 | 0.00 | 0.00 | 86 | 1014.8 |
| 20260901100536 | 66 | 248 | 8.0 | 11.0 | 0.00 | 0.00 | 0.00 | 86 | 1014.8 |
| 20260901100057 | 66 | 248 | 8.0 | 10.0 | 0.00 | 0.00 | 0.00 | 86 | 1014.8 |
| 20260901095516 | 66 | 248 | 7.0 | 10.0 | 0.00 | 0.00 | 0.00 | 86 | 1014.7 |
| 20260901095036 | 66 | 248 | 7.0 | 10.0 | 0.00 | 0.00 | 0.00 | 86 | 1014.8 |
| 20260901094537 | 66 | 248 | 8.0 | 11.0 | 0.00 | 0.00 | 0.00 | 86 | 1014.7 |
| 20260901094016 | 66 | 248 | 8.0 | 11.0 | 0.00 | 0.00 | 0.00 | 86 | 1014.7 |
| 20260901093537 | 66 | 248 | 10.0 | 13.0 | 0.00 | 0.00 | 0.00 | 86 | 1014.7 |
| 20260901093016 | 66 | 225 | 9.0 | 12.0 | 0.00 | 0.00 | 0.00 | 86 | 1014.6 |
| 20260901092536 | 67 | 225 | 9.0 | 12.0 | 0.00 | 0.00 | 0.00 | 86 | 1014.7 |
| 20260901092016 | 67 | 248 | 8.0 | 11.0 | 0.00 | 0.00 | 0.00 | 85 | 1014.7 |
| 20260901091536 | 67 | 248 | 10.0 | 13.0 | 0.00 | 0.00 | 0.00 | 85 | 1014.7 |
| 20260901091016 | 67 | 248 | 11.0 | 14.0 | 0.00 | 0.00 | 0.00 | 85 | 1014.7 |
| 20260901090516 | 67 | 248 | 11.0 | 14.0 | 0.00 | 0.00 | 0.00 | 85 | 1014.5 |
| 20260901090016 | 67 | 248 | 11.0 | 14.0 | 0.00 | 0.00 | 0.00 | 85 | 1014.5 |
| 20260901085516 | 67 | 248 | 11.0 | 14.0 | 0.00 | 0.00 | 0.00 | 85 | 1014.7 |
| 20260901085017 | 67 | 248 | 12.0 | 15.0 | 0.00 | 0.00 | 0.00 | 86 | 1014.8 |
| 20260901084516 | 67 | 248 | 11.0 | 15.0 | 0.00 | 0.00 | 0.00 | 85 | 1014.9 |
| 20260901084017 | 67 | 248 | 10.0 | 16.0 | 0.00 | 0.00 | 0.00 | 85 | 1014.8 |
| 20260901083516 | 67 | 248 | 11.0 | 15.0 | 0.00 | 0.00 | 0.00 | 85 | 1014.7 |
| 20260901083016 | 67 | 248 | 11.0 | 14.0 | 0.00 | 0.00 | 0.00 | 85 | 1014.8 |
| 20260901082537 | 67 | 248 | 11.0 | 14.0 | 0.00 | 0.00 | 0.00 | 85 | 1014.9 |
| 20260901082016 | 67 | 248 | 10.0 | 13.0 | 0.00 | 0.00 | 0.00 | 85 | 1014.8 |
| 20260901081516 | 67 | 248 | 10.0 | 13.0 | 0.00 | 0.00 | 0.00 | 86 | 1014.9 |
| 20260901081017 | 67 | 248 | 10.0 | 13.0 | 0.00 | 0.00 | 0.00 | 86 | 1014.9 |
| 20260901080516 | 67 | 248 | 10.0 | 14.0 | 0.00 | 0.00 | 0.00 | 85 | 1015.0 |
| 20260901080016 | 67 | 248 | 11.0 | 14.0 | 0.00 | 0.00 | 0.00 | 85 | 1014.9 |
| 20260901075516 | 67 | 248 | 10.0 | 13.0 | 0.00 | 0.00 | 0.00 | 85 | 1015.1 |
| 20260901075016 | 67 | 248 | 10.0 | 13.0 | 0.00 | 0.00 | 0.00 | 85 | 1015.1 |
| 20260901074516 | 67 | 248 | 9.0 | 14.0 | 0.00 | 0.00 | 0.00 | 85 | 1015.2 |
| 20260901074036 | 67 | 248 | 10.0 | 14.0 | 0.00 | 0.00 | 0.00 | 85 | 1015.1 |
| 20260901073516 | 67 | 248 | 10.0 | 14.0 | 0.00 | 0.00 | 0.00 | 85 | 1015.2 |
| 20260901073016 | 67 | 248 | 11.0 | 14.0 | 0.00 | 0.00 | 0.00 | 85 | 1015.2 |
| 20260901072516 | 67 | 248 | 10.0 | 13.0 | 0.00 | 0.00 | 0.00 | 85 | 1015.2 |
| 20260901072016 | 67 | 248 | 10.0 | 12.0 | 0.00 | 0.00 | 0.00 | 85 | 1015.4 |
| 20260901071516 | 67 | 248 | 10.0 | 14.0 | 0.00 | 0.00 | 0.00 | 85 | 1015.4 |
| 20260901071016 | 67 | 248 | 10.0 | 13.0 | 0.00 | 0.00 | 0.00 | 85 | 1015.3 |
| 20260901070516 | 67 | 248 | 10.0 | 13.0 | 0.00 | 0.00 | 0.00 | 85 | 1015.3 |
| 20260901070039 | 67 | 248 | 11.0 | 14.0 | 0.00 | 0.00 | 0.00 | 85 | 1015.4 |
| 20260901065516 | 67 | 248 | 10.0 | 14.0 | 0.00 | 0.00 | 0.00 | 85 | 1015.3 |
| 20260901065016 | 67 | 248 | 11.0 | 14.0 | 0.00 | 0.00 | 0.00 | 85 | 1015.4 |
| 20260901064516 | 67 | 248 | 11.0 | 14.0 | 0.00 | 0.00 | 0.00 | 85 | 1015.3 |
| 20260901064016 | 67 | 248 | 11.0 | 15.0 | 0.00 | 0.00 | 0.00 | 85 | 1015.4 |
| 20260901063516 | 67 | 248 | 11.0 | 14.0 | 0.00 | 0.00 | 0.00 | 85 | 1015.4 |
| 20260901063036 | 67 | 248 | 11.0 | 14.0 | 0.00 | 0.00 | 0.00 | 85 | 1015.4 |
| 20260901062516 | 67 | 248 | 11.0 | 14.0 | 0.00 | 0.00 | 0.00 | 85 | 1015.5 |
| 20260901062016 | 67 | 248 | 10.0 | 14.0 | 0.00 | 0.00 | 0.00 | 85 | 1015.5 |
| 20260901061516 | 67 | 248 | 11.0 | 14.0 | 0.00 | 0.00 | 0.00 | 85 | 1015.6 |
| 20260901061016 | 67 | 248 | 10.0 | 14.0 | 0.00 | 0.00 | 0.00 | 85 | 1015.6 |
| 20260901060516 | 67 | 248 | 11.0 | 14.0 | 0.00 | 0.00 | 0.00 | 85 | 1015.6 |
| 20260901060016 | 67 | 248 | 11.0 | 14.0 | 0.00 | 0.00 | 0.00 | 85 | 1015.6 |
| 20260901055516 | 67 | 248 | 11.0 | 14.0 | 0.00 | 0.00 | 0.00 | 85 | 1015.6 |
| 20260901055036 | 67 | 248 | 11.0 | 15.0 | 0.00 | 0.00 | 0.00 | 85 | 1015.6 |
| 20260901054517 | 67 | 248 | 10.0 | 15.0 | 0.00 | 0.00 | 0.00 | 85 | 1015.6 |
| 20260901054016 | 67 | 248 | 11.0 | 14.0 | 0.00 | 0.00 | 0.00 | 85 | 1015.6 |
| 20260901053515 | 67 | 248 | 11.0 | 16.0 | 0.00 | 0.00 | 0.00 | 84 | 1015.5 |
| 20260901053016 | 67 | 225 | 12.0 | 16.0 | 0.00 | 0.00 | 0.00 | 84 | 1015.4 |
| 20260901052516 | 67 | 225 | 12.0 | 15.0 | 0.00 | 0.00 | 0.00 | 84 | 1015.3 |
| 20260901052036 | 67 | 225 | 12.0 | 16.0 | 0.00 | 0.00 | 0.00 | 84 | 1015.3 |
| 20260901051516 | 67 | 225 | 11.0 | 16.0 | 0.00 | 0.00 | 0.00 | 84 | 1015.4 |
| 20260901051016 | 68 | 225 | 12.0 | 17.0 | 0.00 | 0.00 | 0.00 | 84 | 1015.5 |
| 20260901050516 | 68 | 225 | 12.0 | 16.0 | 0.00 | 0.00 | 0.00 | 84 | 1015.6 |
| 20260901050015 | 68 | 225 | 12.0 | 17.0 | 0.00 | 0.00 | 0.00 | 84 | 1015.7 |
| 20260901045536 | 68 | 248 | 13.0 | 17.0 | 0.00 | 0.00 | 0.00 | 84 | 1015.6 |
| 20260901045016 | 68 | 225 | 13.0 | 17.0 | 0.00 | 0.00 | 0.00 | 84 | 1015.6 |
| 20260901044516 | 68 | 248 | 12.0 | 17.0 | 0.00 | 0.00 | 0.00 | 84 | 1015.6 |
| 20260901044036 | 68 | 225 | 13.0 | 17.0 | 0.00 | 0.00 | 0.00 | 84 | 1015.6 |
| 20260901043516 | 68 | 248 | 13.0 | 16.0 | 0.00 | 0.00 | 0.00 | 84 | 1015.8 |
| 20260901043036 | 68 | 248 | 13.0 | 17.0 | 0.00 | 0.00 | 0.00 | 84 | 1015.8 |
| 20260901042516 | 68 | 225 | 13.0 | 18.0 | 0.00 | 0.00 | 0.00 | 84 | 1015.8 |
| 20260901042016 | 68 | 225 | 12.0 | 16.0 | 0.00 | 0.00 | 0.00 | 84 | 1015.7 |
| 20260901041516 | 68 | 225 | 12.0 | 17.0 | 0.00 | 0.00 | 0.00 | 84 | 1015.7 |
| 20260901041015 | 68 | 225 | 9.0 | 17.0 | 0.00 | 0.00 | 0.00 | 84 | 1015.8 |
| 20260901040516 | 68 | 225 | 10.0 | 17.0 | 0.00 | 0.00 | 0.00 | 84 | 1015.9 |
| 20260901040016 | 68 | 225 | 10.0 | 16.0 | 0.00 | 0.00 | 0.00 | 84 | 1015.9 |
| 20260901035536 | 68 | 225 | 10.0 | 16.0 | 0.00 | 0.00 | 0.00 | 84 | 1015.9 |
| 20260901035016 | 68 | 225 | 8.0 | 17.0 | 0.00 | 0.00 | 0.00 | 84 | 1015.9 |
| 20260901034516 | 68 | 225 | 8.0 | 14.0 | 0.00 | 0.00 | 0.00 | 84 | 1015.9 |
| 20260901034036 | 68 | 225 | 9.0 | 14.0 | 0.00 | 0.00 | 0.00 | 84 | 1015.9 |
| 20260901033516 | 68 | 225 | 11.0 | 18.0 | 0.00 | 0.00 | 0.00 | 84 | 1015.8 |
| 20260901033016 | 68 | 225 | 11.0 | 18.0 | 0.00 | 0.00 | 0.00 | 84 | 1015.9 |
| 20260901032537 | 68 | 225 | 11.0 | 17.0 | 0.00 | 0.00 | 0.00 | 83 | 1015.9 |
| 20260901032016 | 68 | 225 | 12.0 | 17.0 | 0.00 | 0.00 | 0.00 | 83 | 1015.8 |
| 20260901031516 | 68 | 225 | 13.0 | 18.0 | 0.00 | 0.00 | 0.00 | 83 | 1015.7 |
| 20260901031036 | 68 | 225 | 12.0 | 18.0 | 0.00 | 0.00 | 0.00 | 84 | 1015.8 |
| 20260901030516 | 68 | 225 | 12.0 | 18.0 | 0.00 | 0.00 | 0.00 | 84 | 1015.8 |
| 20260901030016 | 68 | 225 | 13.0 | 19.0 | 0.00 | 0.00 | 0.00 | 84 | 1015.8 |
| 20260901025516 | 68 | 225 | 12.0 | 16.0 | 0.00 | 0.00 | 0.00 | 84 | 1015.8 |
| 20260901025016 | 68 | 225 | 12.0 | 17.0 | 0.00 | 0.00 | 0.00 | 84 | 1015.9 |
| 20260901024516 | 68 | 225 | 13.0 | 18.0 | 0.00 | 0.00 | 0.00 | 84 | 1015.9 |
| 20260901024016 | 68 | 225 | 14.0 | 19.0 | 0.00 | 0.00 | 0.00 | 83 | 1015.9 |
| 20260901023516 | 68 | 225 | 13.0 | 17.0 | 0.00 | 0.00 | 0.00 | 83 | 1016.0 |
| 20260901023016 | 68 | 225 | 14.0 | 18.0 | 0.00 | 0.00 | 0.00 | 83 | 1015.9 |
| 20260901022516 | 68 | 203 | 15.0 | 19.0 | 0.00 | 0.00 | 0.00 | 83 | 1015.9 |
| 20260901022036 | 68 | 203 | 15.0 | 18.0 | 0.00 | 0.00 | 0.00 | 82 | 1015.8 |
| 20260901021516 | 68 | 203 | 15.0 | 18.0 | 0.00 | 0.00 | 0.00 | 82 | 1015.8 |
| 20260901021016 | 68 | 203 | 16.0 | 19.0 | 0.00 | 0.00 | 0.00 | 82 | 1015.9 |
| 20260901020516 | 68 | 203 | 16.0 | 18.0 | 0.00 | 0.00 | 0.00 | 81 | 1015.9 |
| 20260901020016 | 68 | 203 | 16.0 | 19.0 | 0.00 | 0.00 | 0.00 | 81 | 1016.0 |
| 20260901015536 | 68 | 203 | 15.0 | 18.0 | 0.00 | 0.00 | 0.00 | 81 | 1016.0 |
| 20260901015016 | 68 | 203 | 16.0 | 20.0 | 0.00 | 0.00 | 0.00 | 80 | 1016.1 |
| 20260901014516 | 68 | 203 | 17.0 | 20.0 | 0.00 | 0.00 | 0.00 | 80 | 1016.1 |
| 20260901014016 | 68 | 203 | 17.0 | 20.0 | 0.00 | 0.00 | 0.00 | 79 | 1016.0 |
| 20260901013516 | 68 | 203 | 16.0 | 19.0 | 0.00 | 0.00 | 0.00 | 79 | 1016.0 |
| 20260901013016 | 68 | 203 | 16.0 | 19.0 | 0.00 | 0.00 | 0.00 | 78 | 1016.0 |